Printer-friendly version
Follow the MPC on Twitter Follow the MPC on Facebook The MPC blog
Minor Planet Center

MPEC 2007-T110: 2007 TY68

The following Minor Planet Electronic Circular may be linked-to from your own Web pages, but must not otherwise be redistributed electronically.

A form allowing access to any MPEC is at the bottom of this page.


Read MPEC 2007-T109 Read MPEC 2007-T111


M.P.E.C. 2007-T110                               Issued 2007 Oct. 15, 05:43 UT

     The Minor Planet Electronic Circulars contain information on unusual
         minor planets and routine data on comets.  They are published
   on behalf of Commission 20 of the International Astronomical Union by the
          Minor Planet Center, Smithsonian Astrophysical Observatory,
                          Cambridge, MA 02138, U.S.A.

             Prepared using the Tamkin Foundation Computer Network

                              MPC@CFA.HARVARD.EDU
          URL http://www.cfa.harvard.edu/iau/mpc.html  ISSN 1523-6714

                                   2007 TY68

Observations:
     K07T68Y* C2007 10 13.32088 04 14 29.25 +13 37 02.2          19.8   ET110704
     K07T68Y  C2007 10 13.33222 04 14 28.40 +13 36 26.8          20.0   ET110704
     K07T68Y  C2007 10 13.34355 04 14 27.71 +13 35 49.0          20.4   ET110704
     K07T68Y  C2007 10 13.35490 04 14 27.05 +13 35 14.9          19.9   ET110704
     K07T68Y 5C2007 10 14.27072 04 13 31.79 +12 46 09.5          20.0 R ET110673
     K07T68Y 5C2007 10 14.27373 04 13 31.61 +12 46 00.2                 ET110673
     K07T68Y 5C2007 10 14.28102 04 13 31.14 +12 45 36.9                 ET110673
     K07T68Y 5C2007 10 14.29086 04 13 30.50 +12 45 05.8                 ET110673
     K07T68Y HC2007 10 15.04708 04 12 41.98 +12 03 41.3                 ET110246
     K07T68Y HC2007 10 15.04940 04 12 41.80 +12 03 35.0                 ET110246
     K07T68Y HC2007 10 15.05094 04 12 41.56 +12 03 29.9                 ET110246
     K07T68Y  C2007 10 15.05891 04 12 41.18 +12 03 03.3          18.7 R ET110118
     K07T68Y  C2007 10 15.06325 04 12 40.86 +12 02 49.3          19.0 R ET110118

Observer details:
118 Modra.  Observer S. Gajdos.  0.6-m f/5.5 reflector + CCD.
246 Klet Observatory-KLENOT.  Observers M. Tichy, J. Ticha.  Measurer M. Tichy.
    1.06-m KLENOT Telescope + CCD.
673 Table Mountain Observatory, Wrightwood.  Observer J. Young.  0.61-m f/16
    Cassegrain + CCD.
704 Lincoln Laboratory ETS, New Mexico.  Observers M. Bezpalko, D. Torres,
    R. Kracke, G. Spitz, J. Kistler.  Measurers J. Stuart, S. Scruggs.  1.0-m
    f/2.15 reflector + CCD.

Orbital elements:
2007 TY68
Epoch 2007 Oct. 27.0 TT = JDT 2454400.5                 MPC
M 312.34596              (2000.0)            P               Q
n   0.35439476     Peri.  258.79932     -0.09055087     -0.80560675
a   1.9776276      Node   219.40546     +0.74175398     -0.44684987
e   0.2093003      Incl.   67.26700     -0.66453109     -0.38900252
P   2.78           H   17.4           G   0.15           U   9
Residuals in seconds of arc
071013 704  1.4+  0.1+    071014 673  0.1+  0.2-    071015 246  1.9-  0.3+
071013 704  0.8-  0.6+    071014 673  0.1+  0.1+    071015 118  0.8+  0.0
071013 704  0.6-  1.3-    071014 673  0.1-  0.9+    071015 118  0.4+  0.4+
071013 704  0.0   0.6+    071015 246  0.5+  1.1-
071014 673  0.1-  0.7-    071015 246  0.1+  0.3+

Ephemeris:
2007 TY68                a,e,i = 1.98, 0.21, 67                  q = 1.5637
Date    TT    R. A. (2000) Decl.     Delta      r     Elong.  Phase     V
2007 10 07    04 19.50   +18 45.4    1.020    1.807   126.9    26.2    19.9
2007 10 17    04 10.47   +10 13.6    0.903    1.782   139.4    21.4    19.5
2007 10 27    03 55.50   -00 18.2    0.827    1.757   149.4    16.7    19.1
2007 11 06    03 35.35   -11 45.0    0.804    1.733   149.5    16.9    19.0
2007 11 16    03 12.15   -22 12.6    0.835    1.710   139.1    22.2    19.2
2007 11 26    02 49.23   -30 14.9    0.909    1.688   125.8    28.3    19.6
2007 12 06    02 29.68   -35 39.2    1.010    1.667   113.4    32.9    19.9
2007 12 16    02 15.44   -38 57.4    1.123    1.648   102.7    35.6    20.2
2007 12 26    02 07.07   -40 49.4    1.239    1.630    93.7    37.0    20.4
2008 01 05    02 04.18   -41 46.5    1.349    1.614    86.1    37.4    20.6
2008 01 15    02 06.15   -42 09.4    1.448    1.600    79.8    37.2    20.7
2008 01 25    02 12.27   -42 11.7    1.533    1.588    74.7    36.7    20.8
2008 02 04    02 22.00   -42 01.5    1.602    1.579    70.7    36.1    20.9
2008 02 14    02 34.98   -41 43.6    1.653    1.571    67.7    35.6    20.9
2008 02 24    02 51.00   -41 21.4    1.686    1.566    65.8    35.2    21.0
2008 03 05    03 09.96   -40 56.0    1.704    1.564    64.8    35.0    21.0
2008 03 15    03 31.94   -40 27.6    1.706    1.564    64.6    35.1    21.0
2008 03 25    03 56.99   -39 55.5    1.696    1.567    65.2    35.3    21.0
2008 04 04    04 25.23   -39 17.2    1.678    1.572    66.4    35.7    21.0
2008 04 14    04 56.70   -38 29.7    1.655    1.579    67.9    36.0    21.0
2008 04 24    05 31.24   -37 29.2    1.634    1.589    69.4    36.3    21.0
2008 05 04    06 08.42   -36 11.4    1.618    1.602    70.8    36.5    21.0
2008 05 14    06 47.52   -34 34.0    1.615    1.616    71.8    36.5    21.0
2008 05 24    07 27.48   -32 37.4    1.627    1.632    72.2    36.2    21.0
2008 06 03    08 07.19   -30 25.2    1.659    1.650    71.7    35.7    21.0
2008 06 13    08 45.62   -28 04.8    1.711    1.669    70.3    34.9    21.1
2008 06 23    09 22.04   -25 44.6    1.784    1.690    68.0    33.9    21.2
2008 07 03    09 56.09   -23 31.6    1.874    1.712    65.0    32.5    21.3
2008 07 13    10 27.69   -21 31.4    1.978    1.736    61.2    30.9    21.4

Sonia Keys                   (C) Copyright 2007 MPC           M.P.E.C. 2007-T110

Read MPEC 2007-T109 Read MPEC 2007-T111


MPEC number:

Enter an MPEC number in one of the following forms:

  • 1997-B01 (the full form)
  • J97B01 (the packed version of the full form)
  • B01 (the abbreviated form)

Valid HTML 4.01!